Temperature
1 1 0 1 1 -0 -0 -0 -0 -0 -0 0 -1 -2 -2 -2 -2 -2 -2 -2 -2 -3 -3 -3 -3 -3 -3 -4 -4 -4 -4 -4 -4 -5 -5 -5 -5 -5 -5 -5 -5 -5 -4 -4
-0 0 -0 0 0 -0 -0 -0 -1 -1 -1 -1 -2 -2 -2 -2 -3 -3 -3 -3 -3 -3 -3 -3 -4 -4 -4 -4 -4 -5 -5 -5 -5 -5 -5 -5 -5 -5 -5 -5 -5 -5 -5 -5
-1 -1 -0 -1 -1 -1 -1 -2 -1 -1 -1 -3 -3 -3 -3 -3 -3 -3 -3 -3 -3 -4 -4 -4 -4 -4 -5 -5 -5 -5 -5 -6 -6 -6 -6 -6 -6 -6 -6 -6 -6 -6 -6 -6
-2 -2 -1 1 -1 -1 -1 -2 -3 -2 -3 -3 -3 -3 -3 -2 -2 -3 -3 -4 -4 -4 -4 -4 -5 -5 -5 -5 -5 -6 -6 -6 -6 -6 -6 -6 -6 -6 -6 -6 -6 -6 -6 -6
-3 -2 -2 -1 -2 -2 -2 -2 -3 -3 -4 -4 -4 -4 -3 -3 -3 -3 -4 -4 -4 -4 -5 -5 -5 -5 -6 -6 -6 -6 -6 -7 -7 -7 -7 -7 -7 -7 -7 -7 -7 -7 -7 -7
-4 -2 -1 -0 -2 -3 -2 -2 -3 -4 -4 -5 -5 -5 -4 -3 -4 -4 -4 -4 -5 -5 -5 -5 -6 -6 -6 -6 -6 -7 -7 -7 -7 -7 -7 -7 -7 -7 -7 -8 -7 -7 -7 -7
-4 -3 -2 -2 -3 -3 -2 -2 -3 -4 -4 -5 -5 -5 -4 -4 -4 -5 -5 -5 -5 -5 -6 -6 -6 -7 -7 -7 -7 -7 -7 -8 -8 -8 -8 -8 -8 -8 -8 -8 -8 -8 -8 -8
-4 -4 -2 -4 -4 -3 -3 -3 -3 -4 -4 -4 -5 -5 -5 -5 -5 -5 -5 -6 -6 -6 -6 -7 -7 -7 -7 -7 -8 -8 -8 -8 -8 -8 -8 -8 -8 -8 -8 -8 -8 -8 -8 -8
-3 -2 -3 -4 -3 -3 -3 -3 -3 -4 -4 -4 -5 -5 -5 -5 -6 -6 -6 -6 -6 -7 -7 -7 -7 -8 -8 -8 -8 -8 -8 -8 -8 -8 -8 -8 -8 -8 -8 -9 -9 -9 -9 -9
-5 -5 -5 -4 -4 -3 -3 -3 -4 -4 -4 -5 -5 -6 -6 -6 -6 -6 -7 -7 -7 -7 -7 -7 -8 -8 -8 -9 -9 -9 -9 -9 -9 -9 -9 -9 -9 -9 -9 -9 -9 -9 -9 -9
-6 -6 -5 -5 -4 -4 -4 -4 -4 -4 -5 -5 -5 -6 -6 -6 -7 -7 -7 -7 -8 -8 -8 -8 -8 -9 -9 -9 -9 -9 -9 -9 -9 -9 -9 -9 -9 -9 -9 -9 -10 -10 -10 -10
-4 -5 -5 -5 -4 -4 -4 -5 -5 -5 -5 -6 -6 -6 -7 -7 -7 -7 -8 -8 -8 -8 -8 -9 -9 -9 -9 -9 -10 -10 -10 -10 -10 -10 -10 -10 -10 -9 -10 -10 -10 -10 -10 -10
-4 -4 -4 -5 -5 -5 -5 -5 -6 -6 -6 -6 -7 -7 -7 -7 -8 -8 -8 -8 -8 -9 -9 -9 -9 -9 -10 -10 -10 -10 -10 -10 -10 -10 -10 -10 -10 -10 -10 -10 -10 -10 -10 -10
-5 -5 -6 -5 -6 -6 -6 -6 -6 -7 -7 -7 -7 -7 -8 -8 -8 -8 -8 -9 -9 -9 -9 -10 -10 -10 -10 -10 -10 -10 -10 -11 -11 -11 -11 -11 -11 -11 -11 -11 -11 -10 -10 -10
-5 -5 -6 -6 -6 -6 -7 -7 -7 -7 -7 -8 -8 -8 -8 -8 -9 -9 -9 -9 -10 -10 -10 -10 -10 -10 -10 -11 -11 -11 -11 -11 -11 -11 -11 -11 -11 -11 -11 -11 -11 -11 -11 -11
-6 -6 -6 -6 -7 -7 -7 -7 -8 -8 -8 -8 -8 -9 -9 -9 -9 -9 -10 -10 -10 -10 -10 -10 -11 -11 -11 -11 -11 -11 -11 -11 -11 -11 -11 -12 -12 -12 -12 -12 -12 -12 -12 -12
-7 -7 -7 -7 -7 -7 -8 -8 -8 -8 -9 -9 -9 -9 -10 -10 -10 -10 -10 -10 -11 -11 -11 -11 -11 -11 -11 -11 -11 -11 -11 -11 -12 -12 -12 -12 -12 -12 -12 -12 -12 -12 -12 -12
-7 -7 -7 -7 -8 -8 -8 -9 -9 -9 -9 -9 -10 -10 -10 -10 -10 -11 -11 -11 -11 -11 -11 -11 -12 -12 -12 -12 -12 -12 -12 -12 -12 -12 -12 -12 -12 -13 -13 -13 -13 -13 -12 -12
-7 -8 -8 -8 -8 -9 -9 -9 -9 -10 -10 -10 -10 -10 -11 -11 -11 -11 -11 -11 -11 -11 -12 -12 -12 -12 -12 -12 -12 -12 -12 -12 -13 -13 -13 -13 -13 -13 -13 -13 -13 -13 -13 -13
-8 -8 -9 -9 -9 -9 -9 -10 -10 -10 -10 -11 -11 -11 -11 -11 -11 -12 -12 -12 -12 -12 -12 -12 -12 -12 -12 -12 -12 -13 -13 -13 -13 -13 -13 -13 -13 -13 -13 -13 -13 -13 -13 -13
-9 -9 -9 -9 -9 -10 -10 -10 -11 -11 -11 -11 -11 -11 -11 -12 -12 -12 -12 -12 -12 -13 -13 -13 -13 -13 -13 -13 -13 -13 -13 -13 -13 -13 -13 -13 -13 -13 -13 -13 -13 -13 -13 -13
-9 -10 -10 -10 -10 -10 -11 -11 -11 -11 -11 -12 -12 -12 -12 -12 -12 -12 -13 -13 -13 -13 -13 -13 -13 -13 -13 -13 -13 -13 -13 -14 -14 -14 -14 -14 -13 -13 -13 -13 -13 -13 -13 -13
-10 -10 -10 -11 -11 -11 -11 -11 -12 -12 -12 -12 -12 -12 -13 -13 -13 -13 -13 -13 -13 -13 -13 -13 -13 -14 -14 -14 -14 -14 -14 -14 -14 -14 -14 -14 -14 -14 -14 -14 -14 -14 -14 -14
-10 -10 -11 -11 -11 -11 -12 -12 -12 -12 -12 -12 -13 -13 -13 -13 -13 -13 -14 -14 -14 -14 -14 -14 -14 -14 -14 -14 -14 -14 -14 -14 -14 -14 -14 -14 -14 -14 -14 -14 -14 -14 -14 -14
-11 -11 -11 -11 -12 -12 -12 -12 -12 -12 -13 -13 -13 -13 -13 -14 -14 -14 -14 -14 -14 -14 -14 -14 -14 -14 -14 -14 -14 -14 -14 -14 -14 -14 -14 -14 -14 -14 -14 -14 -14 -14 -14 -14
-11 -11 -12 -12 -12 -12 -12 -13 -13 -13 -13 -13 -13 -13 -14 -14 -14 -14 -14 -14 -14 -14 -14 -14 -14 -14 -14 -14 -14 -14 -14 -15 -15 -15 -14 -14 -14 -14 -14 -14 -14 -14 -14 -14
-11 -12 -12 -12 -12 -12 -13 -13 -13 -13 -13 -14 -14 -14 -14 -14 -14 -14 -14 -14 -15 -15 -15 -15 -15 -15 -15 -15 -15 -15 -15 -15 -15 -15 -15 -15 -14 -14 -14 -14 -14 -14 -14 -14
Wind_Speed
5 3 3 6 7 8 9 9 9 9 9 10 6 5 5 4 3 2 3 3 3 3 3 4 5 5 4 5 5 4 4 5 6 6 6 7 7 7 7 7 7 7 7 7
3 2 3 6 8 10 10 8 9 10 12 6 3 2 2 3 3 3 4 4 4 4 4 5 5 5 5 5 5 4 4 6 6 7 7 7 7 7 7 7 7 7 7 7
3 3 4 8 8 9 6 6 7 11 9 1 2 3 4 4 4 4 5 4 4 4 5 6 5 5 5 5 5 4 5 6 6 6 7 8 8 7 7 7 7 7 7 7
1 1 7 6 1 5 6 6 6 5 4 3 4 3 3 3 3 3 3 3 4 4 5 5 4 4 4 4 4 5 5 6 6 7 8 8 7 7 7 7 7 7 7 7
3 4 8 7 2 3 4 6 5 6 5 1 1 2 2 1 1 2 3 3 3 3 4 4 4 4 4 4 4 5 6 6 7 7 8 8 8 8 7 7 7 7 7 7
4 4 7 5 1 1 2 5 3 4 4 2 2 1 4 1 1 2 2 2 2 3 3 4 4 4 4 5 5 6 6 7 7 7 7 8 8 8 7 7 7 8 8 7
5 6 8 4 1 3 3 5 1 2 2 3 3 4 3 2 2 2 2 3 2 2 3 4 4 3 4 5 5 6 7 7 7 7 7 7 7 6 7 7 7 7 8 7
5 5 9 2 4 5 5 0 0 1 1 2 2 1 2 2 2 3 3 3 3 3 4 4 4 3 4 6 6 6 6 7 7 7 7 7 6 7 6 6 7 7 7 7
8 7 1 3 3 2 1 1 1 1 1 1 1 2 3 3 3 3 3 3 3 3 4 4 4 3 5 6 6 6 7 7 7 8 7 7 6 6 6 5 5 6 6 7
4 5 3 2 2 1 0 1 1 1 2 1 2 3 3 3 3 3 3 3 3 3 4 5 4 4 5 6 6 6 7 7 7 7 7 6 6 5 5 5 6 6 6 7
4 4 2 2 2 1 0 1 1 0 0 1 2 2 3 3 3 3 3 3 3 3 4 6 5 5 6 6 5 6 7 7 7 7 7 6 6 5 6 5 6 7 6 6
5 4 4 4 2 1 1 1 1 0 1 1 1 2 2 3 3 3 3 3 4 4 5 5 5 6 6 6 5 6 6 6 6 6 6 6 6 7 9 9 12 11 10 9
2 1 1 1 1 0 1 1 1 1 1 2 2 1 2 2 3 3 3 3 4 5 5 5 6 6 7 6 5 5 6 6 6 6 6 6 6 7 8 9 11 11 11 12
1 1 0 1 1 0 0 1 1 1 1 1 1 2 2 2 3 3 4 4 4 4 5 5 5 7 7 6 6 6 6 7 7 6 6 6 6 6 6 7 8 7 9 12
0 1 2 1 1 1 0 1 1 2 2 2 1 2 2 3 4 4 4 4 4 4 5 5 6 7 7 6 6 6 6 5 5 5 5 5 6 6 6 6 6 7 7 9
0 1 1 1 1 1 0 1 1 3 3 3 3 3 3 3 4 4 4 3 3 5 6 6 6 7 6 6 6 5 5 9 8 6 5 5 5 5 6 6 6 6 7 7
2 1 1 2 2 2 2 3 3 3 3 4 4 3 3 3 3 4 4 4 4 5 5 6 6 7 6 6 5 5 5 7 9 7 5 5 5 6 6 6 6 6 6 8
3 3 3 3 3 3 3 3 3 3 3 3 3 2 3 3 4 5 5 5 5 5 5 5 6 6 6 6 5 4 4 5 5 5 5 5 6 5 5 6 6 7 7 8
1 1 1 2 2 2 3 3 3 3 3 2 2 3 4 4 4 4 4 4 4 6 6 6 9 7 6 7 7 4 4 5 5 5 5 7 7 5 5 6 6 6 7 7
1 0 0 1 1 1 2 2 2 2 2 2 2 2 3 3 3 3 3 4 4 4 6 7 6 5 6 6 7 3 4 4 5 5 5 5 5 6 6 6 6 6 6 6
1 1 1 1 1 2 2 1 1 2 3 2 2 3 3 4 3 2 3 4 4 5 6 8 5 5 5 6 6 3 4 4 5 5 5 6 6 6 6 6 6 6 6 6
0 0 1 1 1 2 2 1 1 2 2 2 2 2 3 3 3 3 3 3 5 8 6 4 4 7 8 7 3 3 4 4 5 5 5 5 6 6 6 7 6 7 6 6
0 0 0 1 1 2 2 2 2 2 2 3 3 3 3 3 3 3 4 3 4 8 6 4 7 11 10 5 3 4 4 5 5 5 5 6 6 6 7 7 7 7 7 6
0 0 0 0 0 1 2 3 3 2 2 3 3 3 2 3 3 2 3 6 8 9 5 7 11 11 9 4 4 4 4 5 5 5 6 6 6 6 6 7 7 7 7 7
1 0 1 0 1 1 2 2 2 2 2 2 3 3 2 2 3 3 3 4 7 8 5 7 11 11 6 4 4 5 5 5 6 6 5 6 6 6 6 6 7 7 7 7
0 0 1 1 1 1 1 1 2 2 2 3 3 3 3 2 3 3 3 4 5 7 5 4 5 7 5 5 5 5 5 6 7 6 6 6 7 7 7 7 8 7 7 7
0 0 0 1 1 1 1 1 2 2 3 3 4 3 3 3 3 3 4 4 4 4 4 4 4 4 5 5 5 5 5 5 6 6 6 6 6 6 7 8 7 7 7 8
Wind_Direction
256 269 232 232 230 204 207 211 221 245 250 264 255 246 246 246 250 250 259 266 265 274 286 294 294 293 293 296 301 304 304 303 301 302 302 303 305 304 303 303 304 303 304 303
277 279 274 266 246 223 227 231 240 261 269 263 261 235 250 250 237 243 261 269 275 284 290 289 288 291 294 297 302 305 301 300 304 307 309 308 308 307 307 306 305 304 303 301
260 319 328 271 233 209 213 216 210 237 251 245 265 254 248 244 239 250 260 269 273 278 279 281 284 288 288 293 302 304 302 304 307 309 311 310 311 311 307 305 305 304 301 298
215 39 247 251 191 195 217 239 218 235 260 241 245 274 275 230 215 249 272 282 288 285 287 292 294 297 297 305 305 304 305 307 310 311 310 310 310 310 308 305 304 301 300 297
169 238 274 290 260 179 203 262 221 230 252 277 44 1 313 246 203 243 268 281 281 282 290 302 302 303 309 311 310 309 308 310 311 311 309 310 311 308 308 306 304 300 301 299
163 208 246 253 245 227 114 280 241 203 222 179 100 291 274 314 328 308 310 306 303 315 325 316 312 317 314 310 314 309 308 308 308 307 305 304 303 304 305 305 303 306 306 302
192 227 262 256 226 118 166 260 294 177 185 170 201 228 269 318 325 320 321 324 332 332 323 313 318 324 314 312 308 308 311 309 308 307 303 298 299 302 305 307 309 307 304 303
177 214 252 194 143 184 217 347 95 163 179 194 234 286 309 315 314 322 328 331 332 327 321 324 328 325 313 309 308 313 312 309 308 308 306 308 305 305 307 308 309 307 306 305
197 217 271 169 196 226 156 183 221 196 223 184 242 272 290 297 296 300 306 314 319 315 317 323 324 318 305 306 313 315 313 310 308 308 308 310 307 305 306 305 304 306 307 308
239 261 253 251 271 307 246 227 242 213 212 215 249 265 279 285 294 297 301 308 316 319 316 314 315 312 301 306 313 313 310 309 309 310 310 312 310 307 304 302 301 303 305 306
245 275 317 289 238 223 195 72 65 6 254 219 224 267 271 279 287 292 304 309 310 307 303 303 311 311 312 313 315 312 308 308 310 310 307 309 308 300 300 289 296 302 300 300
229 217 205 245 256 208 174 260 263 308 327 315 260 263 282 286 291 295 301 309 312 309 306 307 311 310 313 314 314 310 311 313 312 310 309 310 310 311 310 311 312 314 311 307
206 201 191 226 303 124 192 261 297 273 250 277 292 273 281 288 301 306 308 310 306 304 304 306 309 310 313 316 315 308 304 307 308 311 310 310 312 314 315 320 321 322 322 321
140 113 211 237 246 293 227 288 312 309 296 271 275 295 298 299 304 304 302 303 303 306 306 307 309 310 313 315 313 310 306 307 310 305 304 304 307 309 310 315 320 321 325 328
340 179 205 203 92 55 38 47 7 325 318 319 306 295 292 294 294 297 303 311 315 312 310 313 313 312 318 318 316 312 310 309 307 305 305 306 307 308 309 311 313 316 322 327
74 91 132 156 200 274 319 296 275 287 297 300 302 298 292 289 290 296 305 310 308 307 309 311 309 311 320 321 319 315 311 316 320 317 317 318 317 315 315 315 316 318 320 321
155 202 224 253 257 262 261 261 256 266 280 283 286 296 305 308 307 306 309 309 299 295 301 306 308 315 320 320 317 313 312 315 322 322 317 316 315 315 315 315 315 315 316 320
215 223 216 222 237 257 272 275 269 270 273 280 292 295 289 286 288 296 305 313 317 317 314 313 314 317 321 324 320 314 312 312 315 315 315 318 317 315 315 316 316 314 314 318
201 213 226 234 238 239 252 267 275 279 284 284 282 278 277 278 282 291 303 312 316 315 314 316 324 332 327 323 325 311 311 314 318 319 318 320 322 319 316 314 313 314 316 318
48 37 323 302 289 246 259 277 287 292 293 289 288 291 296 295 294 298 302 295 282 281 297 311 322 325 320 316 323 316 318 319 319 319 318 317 316 317 316 315 314 314 315 316
30 13 359 342 327 312 281 270 274 288 299 295 281 284 292 298 298 298 304 307 307 307 310 321 330 322 316 320 328 337 330 323 319 317 316 316 316 315 315 314 315 315 315 315
0 359 343 343 342 328 321 308 283 287 301 305 298 294 301 307 311 308 287 278 300 319 327 318 318 320 327 334 345 334 325 320 317 315 315 315 315 314 314 314 313 313 312 312
277 2 341 329 318 314 326 326 311 301 296 295 295 295 295 294 295 299 307 306 308 319 328 316 321 327 337 354 341 325 319 318 316 314 313 311 310 310 310 311 310 309 309 308
145 69 342 351 38 20 341 330 329 321 305 300 296 294 297 307 307 287 283 310 323 325 328 323 330 334 346 355 334 325 319 316 313 310 308 307 308 308 307 307 307 307 305 304
152 151 136 77 7 320 309 325 337 336 335 330 323 317 308 291 288 303 307 312 322 330 329 328 333 338 346 330 323 318 314 309 307 310 309 310 308 307 305 305 304 304 304 303
157 232 265 270 267 280 302 323 327 326 331 329 326 323 323 319 307 307 313 316 318 328 330 321 323 328 325 318 314 312 310 312 317 318 312 309 307 306 305 306 303 301 299 298
36 23 359 339 325 311 306 304 308 314 318 312 311 316 321 323 322 321 321 322 321 320 316 315 316 315 313 313 311 311 309 307 307 307 307 306 305 303 303 301 300 298 297 296
Height
1513 1513 1515 1513 1513 1516 1518 1516 1517 1510 1508 1501 1502 1502 1501 1501 1501 1501 1501 1501 1501 1500 1499 1499 1498 1496 1494 1493 1491 1489 1487 1485 1483 1481 1479 1476 1474 1472 1470 1467 1465 1462 1460 1457
1515 1513 1514 1511 1508 1510 1510 1510 1510 1507 1503 1498 1499 1499 1499 1498 1498 1498 1498 1498 1498 1498 1497 1495 1494 1492 1491 1489 1487 1485 1483 1481 1479 1477 1475 1472 1470 1467 1465 1462 1460 1458 1455 1453
1516 1516 1512 1510 1503 1503 1504 1503 1503 1502 1497 1497 1497 1497 1496 1496 1496 1496 1496 1496 1495 1495 1494 1493 1491 1489 1487 1485 1483 1482 1479 1477 1475 1473 1470 1468 1466 1463 1460 1458 1455 1453 1451 1448
1520 1518 1515 1497 1497 1496 1498 1497 1498 1496 1495 1495 1495 1495 1494 1494 1494 1494 1494 1494 1493 1492 1491 1490 1488 1486 1484 1482 1480 1478 1476 1474 1471 1469 1466 1464 1461 1458 1456 1453 1451 1448 1446 1444
1520 1519 1508 1499 1495 1496 1498 1496 1494 1494 1493 1494 1493 1493 1493 1493 1493 1493 1492 1492 1491 1490 1488 1486 1484 1482 1480 1478 1476 1474 1472 1470 1467 1465 1462 1459 1457 1454 1452 1449 1446 1444 1442 1440
1519 1516 1507 1494 1494 1492 1495 1496 1490 1490 1491 1492 1493 1495 1492 1491 1490 1490 1490 1489 1488 1486 1485 1483 1481 1479 1477 1475 1473 1471 1468 1466 1464 1461 1458 1456 1453 1450 1448 1445 1442 1440 1438 1436
1514 1513 1501 1494 1492 1493 1499 1492 1489 1488 1488 1490 1491 1491 1490 1489 1488 1488 1487 1486 1485 1484 1482 1480 1478 1476 1474 1472 1469 1467 1465 1462 1460 1457 1455 1452 1449 1447 1444 1442 1439 1436 1434 1432
1511 1512 1500 1491 1491 1492 1490 1487 1487 1487 1487 1488 1488 1487 1487 1487 1486 1485 1484 1483 1482 1481 1479 1478 1476 1474 1471 1468 1466 1464 1461 1459 1456 1454 1451 1448 1446 1443 1441 1438 1435 1433 1430 1428
1496 1493 1489 1488 1487 1487 1486 1486 1486 1486 1486 1486 1485 1485 1485 1484 1484 1483 1482 1481 1479 1478 1476 1475 1473 1471 1468 1466 1463 1461 1458 1455 1453 1450 1448 1445 1442 1440 1437 1435 1432 1429 1427 1424
1492 1488 1486 1486 1485 1485 1485 1485 1485 1484 1484 1484 1483 1483 1482 1482 1481 1480 1479 1478 1477 1475 1473 1471 1470 1468 1465 1462 1460 1457 1455 1452 1449 1446 1444 1442 1439 1437 1434 1431 1429 1426 1424 1421
1489 1486 1485 1484 1484 1484 1484 1484 1483 1483 1482 1482 1481 1480 1480 1479 1478 1478 1476 1475 1474 1472 1470 1468 1466 1464 1462 1459 1457 1454 1451 1449 1446 1443 1441 1438 1436 1434 1431 1429 1426 1424 1421 1419
1483 1482 1483 1482 1482 1482 1482 1481 1481 1480 1480 1480 1479 1478 1478 1477 1476 1475 1474 1472 1471 1469 1467 1465 1463 1461 1459 1456 1454 1451 1448 1446 1443 1440 1438 1435 1432 1430 1428 1426 1423 1421 1419 1417
1479 1479 1480 1480 1480 1480 1480 1480 1479 1479 1478 1477 1477 1476 1475 1474 1473 1472 1471 1469 1468 1466 1464 1462 1460 1458 1456 1453 1451 1448 1445 1443 1440 1438 1435 1432 1430 1427 1424 1422 1420 1418 1415 1413
1477 1478 1478 1478 1478 1478 1478 1478 1477 1477 1476 1475 1475 1474 1473 1472 1470 1469 1468 1466 1465 1463 1461 1459 1457 1455 1453 1450 1448 1445 1443 1440 1437 1435 1432 1430 1427 1424 1422 1418 1415 1413 1411 1409
1476 1476 1476 1476 1476 1476 1476 1476 1475 1474 1473 1473 1472 1471 1470 1469 1467 1466 1465 1463 1461 1460 1458 1456 1454 1452 1450 1447 1445 1442 1440 1437 1435 1432 1429 1427 1424 1422 1419 1416 1414 1411 1408 1406
1474 1474 1474 1474 1474 1474 1474 1473 1472 1471 1471 1470 1469 1468 1467 1466 1465 1463 1462 1460 1458 1456 1454 1452 1450 1449 1447 1444 1442 1440 1437 1435 1432 1430 1427 1424 1422 1419 1417 1414 1411 1409 1406 1404
1471 1471 1471 1471 1471 1471 1471 1471 1470 1469 1468 1467 1466 1465 1464 1463 1461 1460 1459 1457 1456 1454 1452 1450 1448 1446 1444 1442 1439 1437 1435 1432 1430 1427 1425 1422 1419 1417 1414 1412 1409 1407 1404 1402
1469 1469 1469 1469 1469 1469 1468 1468 1467 1466 1466 1465 1464 1462 1461 1460 1458 1457 1456 1454 1453 1451 1449 1447 1445 1443 1441 1439 1437 1435 1432 1430 1427 1425 1422 1420 1417 1415 1412 1410 1407 1404 1402 1400
1467 1467 1467 1467 1467 1466 1466 1465 1465 1464 1463 1462 1461 1460 1458 1457 1456 1455 1453 1452 1450 1448 1447 1445 1443 1441 1439 1437 1434 1432 1430 1427 1425 1422 1420 1417 1415 1412 1410 1407 1405 1402 1400 1398
1465 1465 1465 1465 1465 1464 1463 1463 1462 1462 1461 1460 1459 1457 1456 1455 1454 1452 1451 1450 1448 1446 1445 1443 1441 1439 1436 1434 1432 1430 1427 1425 1423 1420 1417 1415 1412 1410 1407 1405 1403 1400 1398 1395
1463 1463 1463 1463 1463 1462 1462 1461 1460 1459 1459 1458 1457 1455 1454 1453 1452 1450 1448 1447 1446 1444 1442 1441 1438 1436 1434 1432 1430 1428 1425 1423 1420 1418 1415 1413 1410 1408 1405 1403 1400 1398 1395 1393
1462 1462 1462 1461 1461 1460 1460 1459 1459 1458 1457 1456 1455 1453 1452 1451 1450 1448 1447 1446 1444 1442 1440 1438 1436 1434 1432 1430 1428 1425 1423 1420 1418 1415 1413 1410 1408 1405 1403 1400 1398 1395 1393 1390
1462 1461 1461 1460 1460 1459 1459 1458 1457 1456 1455 1454 1453 1452 1450 1449 1448 1446 1445 1443 1441 1440 1438 1436 1434 1432 1430 1428 1425 1423 1421 1418 1416 1413 1410 1408 1405 1403 1400 1397 1395 1392 1390 1387
1461 1460 1460 1459 1459 1458 1457 1457 1456 1455 1454 1453 1452 1450 1449 1447 1446 1445 1443 1441 1440 1438 1436 1434 1432 1430 1428 1425 1423 1420 1418 1416 1413 1410 1408 1405 1403 1400 1397 1394 1392 1389 1386 1384
1460 1459 1459 1458 1458 1457 1456 1455 1454 1453 1452 1451 1450 1449 1447 1446 1444 1443 1441 1439 1437 1435 1433 1432 1430 1427 1425 1423 1420 1418 1416 1413 1410 1408 1405 1402 1400 1397 1394 1391 1389 1386 1384 1381
1459 1459 1458 1458 1457 1456 1455 1454 1453 1452 1451 1449 1448 1447 1446 1444 1443 1441 1439 1437 1435 1433 1431 1429 1427 1425 1422 1420 1418 1415 1413 1410 1408 1405 1402 1399 1397 1394 1391 1388 1386 1383 1381 1378
1458 1458 1457 1457 1456 1455 1454 1453 1452 1450 1449 1448 1446 1445 1444 1442 1440 1439 1437 1435 1433 1431 1429 1427 1424 1422 1420 1417 1415 1412 1410 1407 1405 1402 1399 1397 1394 1391 1388 1386 1383 1380 1378 1376